COSMOS 1275 DEB

Satellite information

Favourite Embed

Satellite Type and Status

DEBRISIN ORBIT

Key statistics

Satellite COSMOS 1275 DEB at a glance.

Uptime

16158

Days in orbit

Revolutions

≈ 14.3

Per day

Orbit

LEO

Low Earth Orbit

Inclination

82.9

Latest

Satellite identification and parameters

Extended collection of information and parameters for COSMOS 1275 DEB.

Object identification

Identified? True

Debris? True

Object name: COSMOS 1275 DEB

International designator: 1981-053CM

Object number (NORAD): 12744

Object ID (CCSDS): 12744

Country: COMMONWEALTH OF INDEPENDENT STATES (CIS)

Current information (Y/N): Y

RCS size: SMALL

Orbital parameters

Period: 100.739 minutes

Inclination: 82.9314 deg

SMA: 7171.751 km

Apoapsis: 807.248 km

Periapsis: 779.984 km

RAAN: 337.8609 deg

Eccentricy: 0.00190081

Argument of periapsis: 281.6953 deg

Mean anomaly: 78.21 deg

Mean motion: 14.29436809 rev/day

Mean motion (dot): 0.00004616 rev/day2

B* drag term: 0.0017996791 1/REarth

Two-line elements (TLE)

Creation date: Aug. 30, 2025, 3:38 a.m.

Reference frame: TEME

Reference center: EARTH

Epoch: Aug. 29, 2025, 6:04 p.m. UTC

TLE line 0: 0 COSMOS 1275 DEB

TLE line 1: 1 12744U 81053CM 25241.75341964 .00004616 00000-0 17997-2 0 9990

TLE line 2: 2 12744 82.9314 337.8609 0019008 281.6953 78.2100 14.29436809248441

Live tracking on map

Real-time ground track for satellite COSMOS 1275 DEB.

In-orbit conjunctions

A list of the most updated potential collisions computed for object COSMOS 1275 DEB.

Target Orbit TCA Probability of collision Miss distance Type
KITSAT B SSO 2025-03-04 08:19:47 0.0002916961 900.0 (m) PAYLOAD
CZ-6A DEB LEO 2024-12-29 20:41:01 0.000124488 722.0 (m) DEBRIS
CZ-11 R/B SSO 2024-07-22 15:13:21 0.0001233873 174.0 (m) ROCKET BODY

Associated space launch

Navigation satellite providing location information for the Tsiklon-B navigation system

COSMOS 1275 DEB was lifted into orbit during the mission ‘Kosmos-3M | Parus 27’, on board a Kosmos-3M space rocket.

The launch took place on June 4, 1981, 3:41 p.m. from 132/2.

For more information about the launch, click the button.

Launch to space Kosmos-3M | Parus 27
Kosmos-3M | Parus 27

Agency: N/A

Status: Launch Successful

Launch date: June 4, 1981, 3:41 p.m. UTC

Rocket: Kosmos-3M

Launch pad: 132/2

Location: Plesetsk Cosmodrome, Russian Federation

...

Latest news about this satellite

There are no fresh news available about this satellite. Check back as we update our databases every day.


Newsletter sign-up

Weekly statistics, charts and insights to help you stay on top of the space industry.